Regional Weather Roundup
Issued by NWS

Home | Current Version | Previous Version | Text Only | Print | Product List | Glossary On
Versions: 1 2 3 4 5 6 7 8 9 10 11 12 13 14 15 16 17 18 19 20 21 22 23 24 25 26 27 28 29 30 31 32 33 34 35 36 37 38 39 40 41 42 43 44 45 46 47 48 49 50
000
ASUS43 KOAX 261710
RWRNE

WEATHER ROUNDUP FOR NEBRASKA
NATIONAL WEATHER SERVICE OMAHA NE
1200 PM CDT SUN APR 26 2015

NOTES: SATELLITE DATA IS BEING USED TO AUGMENT CLOUD COVER ABOVE
       12000 FEET.
       "FAIR" INDICATES FEW OR NO CLOUDS BELOW 12,000 FEET WITH NO
       SIGNIFICANT WEATHER AND/OR OBSTRUCTIONS TO VISIBILITY.

  * THESE STATIONS DO NOT REPORT WEATHER SUCH AS RAIN...SNOW OR FOG.

NEZ001>004-019>022-054>056-261800-
NEBRASKA PANHANDLE

CITY           SKY/WX    TMP DP  RH WIND       PRES   REMARKS
SCOTTSBLUFF    LGT RAIN  45  32  60 SE14      29.95R
ALLIANCE       CLOUDY    43  42  97 SE14      29.96R FOG
CHADRON        RAIN      47  44  90 SE12      29.96R FOG
KIMBALL        RAIN      42  41  97 SE8       29.93R
SIDNEY         LGT RAIN  42  41  96 SE9       29.96R
$$

NEZ057>060-069>072-079>082-261800-
SOUTHWEST NEBRASKA

CITY           SKY/WX    TMP DP  RH WIND       PRES   REMARKS
IMPERIAL       CLOUDY    43  41  93 SE17      29.96R FOG
LEXINGTON      CLOUDY    48  42  80 E16       29.99S
MCCOOK         CLOUDY    46  42  86 E12       29.97R
OGALLALA       CLOUDY    43  42  97 E14       29.97R FOG
$$

NEZ005>010-023>029-035>040-094-261800-
NORTH CENTRAL NEBRASKA

CITY           SKY/WX    TMP DP  RH WIND       PRES   REMARKS
VALENTINE      CLOUDY    50  38  63 SE14      30.03R
AINSWORTH      CLOUDY    49  39  70 E13       30.03S
BROKEN BOW     CLOUDY    50  40  68 SE13G28   30.00S
O`NEILL        PTSUNNY   56  39  52 E13G22    30.05S
ORD            PTSUNNY   53  38  56 E14G22    30.01S
THEDFORD       CLOUDY    46  40  82 E14       30.02R
$$

NEZ041-046>049-061>064-073>077-083>087-261800-
SOUTH CENTRAL NEBRASKA

CITY           SKY/WX    TMP DP  RH WIND       PRES   REMARKS
GRAND ISLAND   PTSUNNY   52  41  66 E17       30.01S
AURORA         PTSUNNY   52  43  71 E20       30.01S
HASTINGS       CLOUDY    52  43  71 E20       29.99R
HEBRON         CLOUDY    50  42  73 E16G22    30.00S
HOLDREGE       CLOUDY    49  42  78 E17G23    29.99R
KEARNEY *      CLOUDY    52  39  62 E17G23    30.00R
YORK           MOSUNNY   54  45  71 E16G23    30.02S
$$

NEZ011>018-030>034-042>045-261800-
NORTHEAST NEBRASKA

CITY           SKY/WX    TMP DP  RH WIND       PRES   REMARKS
NORFOLK        SUNNY     56  32  40 E16G24    30.05S
ALBION         SUNNY     54  36  50 E15G23    30.04S
BLAIR          PTSUNNY   53  39  60 E12G18    30.06S
COLUMBUS *     MOSUNNY   54  39  58 E16G23    30.06F
FREMONT        MOSUNNY   56  41  56 E12G18    30.06S
TEKAMAH        SUNNY     58  37  45 E12G18    30.07S
WAYNE          SUNNY     58  27  30 E17       30.07S
$$

NEZ050>053-065>068-078-088>093-261800-
SOUTHEAST NEBRASKA

CITY           SKY/WX    TMP DP  RH WIND       PRES   REMARKS
LINCOLN        PTSUNNY   55  41  59 E16G23    30.05S
OMAHA EPPLEY   PTSUNNY   55  40  56 E12       30.06S
BEATRICE       CLOUDY    50  42  73 E10       30.02S
FALLS CITY     CLOUDY    52  42  69 E12       30.02S
NEBRASKA CITY  MOSUNNY   54  37  53 E13G20    30.03S
PLATTSMOUTH    MOSUNNY   54  37  53 NE10G16   30.05R
$$

NEZ044-045-051>053-067-261800-
OMAHA AREA

CITY           SKY/WX    TMP DP  RH WIND       PRES   REMARKS
OMAHA EPPLEY   PTSUNNY   55  40  56 E12       30.06S
BLAIR          PTSUNNY   53  39  60 E12G18    30.06S
FREMONT        MOSUNNY   56  41  56 E12G18    30.06S
MILLARD        MOSUNNY   54  40  60 E9        30.06S
OFFUTT AFB     PTSUNNY   56  42  59 NE12G18   30.05S
PLATTSMOUTH    MOSUNNY   54  37  53 NE10G16   30.05R
WAHOO          FAIR      54  39  57 E12       30.05F
$$


USA.gov is the U.S. government's official web portal to all federal, state and local government web resources and services.